EW8032 Weather Reports


time (UTC)temp
C
wind
direction
speed
KPH
gust
KPH
rain 1hr
cm
rain 24hr
cm
rain mn
cm
humidity
%
barometer
mb
20260507224136 13 44 0.0 3.2 0.00 0.46 0.00 87 1011.1
20260507224104 13 44 0.0 3.2 0.00 0.46 0.00 87 1011.2
20260507223704 13 44 0.0 4.8 0.00 0.46 0.00 86 1011.2
20260507223550 13 44 0.0 4.8 0.00 0.46 0.00 86 1011.3
20260507223522 13 44 0.0 4.8 0.00 0.46 0.00 86 1011.1
20260507223407 13 44 1.6 4.8 0.00 0.46 0.00 86 1011.1
20260507223236 14 55 3.2 4.8 0.00 0.46 0.00 85 1011.1
20260507223152 14 57 3.2 4.8 0.00 0.46 0.00 85 1011.1
20260507222652 14 49 3.2 4.8 0.00 0.46 0.00 85 1011.1
20260507222526 14 56 0.0 3.2 0.00 0.46 0.00 85 1011.0
20260507221811 14 78 0.0 0.0 0.00 0.48 0.00 85 1011.2
20260507221738 14 78 0.0 0.0 0.00 0.48 0.00 85 1011.2
20260507221658 14 78 0.0 0.0 0.00 0.48 0.00 85 1011.2
20260507221624 14 78 0.0 0.0 0.00 0.48 0.00 85 1011.2
20260507221540 14 78 0.0 0.0 0.00 0.48 0.00 85 1011.2
20260507220800 14 78 0.0 0.0 0.00 0.48 0.00 85 1011.1
20260507220712 14 78 0.0 0.0 0.00 0.48 0.00 85 1011.1
20260507220623 14 78 0.0 0.0 0.00 0.48 0.00 85 1011.2
20260507220230 14 78 0.0 0.0 0.00 0.48 0.48 84 1011.1
20260507220155 14 78 0.0 0.0 0.00 0.48 0.48 84 1011.2
20260507220031 14 78 0.0 0.0 0.00 0.48 0.48 84 1011.2
20260507220007 14 78 0.0 0.0 0.00 0.48 0.48 84 1011.1
20260507215906 15 78 0.0 0.0 0.00 0.48 0.48 83 1011.2
20260507215521 15 78 0.0 0.0 0.00 0.48 0.48 83 1011.1
20260507215437 15 78 0.0 0.0 0.00 0.48 0.48 83 1011.2
20260507215337 15 78 0.0 0.0 0.00 0.48 0.48 83 1011.3
20260507214723 15 78 0.0 0.0 0.03 0.51 0.48 83 1011.2
20260507214230 15 78 0.0 0.0 0.03 0.51 0.48 82 1011.2
20260507213907 15 78 0.0 0.0 0.03 0.51 0.48 82 1011.2
20260507213656 15 78 0.0 0.0 0.03 0.51 0.48 82 1011.2
20260507213649 15 78 0.0 0.0 0.03 0.51 0.48 82 1011.2
20260507213606 15 78 0.0 0.0 0.03 0.51 0.48 82 1011.2
20260507213201 15 78 0.0 0.0 0.03 0.51 0.48 82 1011.2
20260507213112 15 78 0.0 0.0 0.03 0.51 0.48 82 1011.2
20260507212606 15 78 0.0 0.0 0.03 0.51 0.48 81 1011.2
20260507212542 15 78 0.0 0.0 0.03 0.51 0.48 81 1011.2
20260507212438 15 78 0.0 0.0 0.03 0.51 0.48 81 1011.1
20260507212252 15 78 0.0 0.0 0.03 0.51 0.48 81 1011.1
20260507212239 15 78 0.0 0.0 0.03 0.51 0.48 81 1011.2
20260507212154 15 78 0.0 0.0 0.03 0.51 0.48 81 1011.1
20260507212116 15 78 0.0 0.0 0.03 0.51 0.48 81 1011.1
20260507212000 15 78 0.0 0.0 0.03 0.51 0.48 81 1011.1
20260507211946 15 78 0.0 0.0 0.03 0.51 0.48 81 1011.1
20260507211502 15 78 0.0 0.0 0.03 0.51 0.48 81 1011.1
20260507211432 15 78 0.0 0.0 0.03 0.51 0.48 81 1011.1
20260507211350 15 78 0.0 0.0 0.03 0.51 0.48 81 1011.2
20260507211027 15 78 0.0 0.0 0.03 0.51 0.48 81 1011.1
20260507210959 15 78 0.0 0.0 0.03 0.51 0.48 81 1011.1
20260507210916 15 78 0.0 0.0 0.03 0.51 0.48 81 1011.1
20260507210754 15 78 0.0 0.0 0.03 0.51 0.48 81 1011.1
20260507210706 15 78 0.0 0.0 0.03 0.51 0.48 81 1011.0
20260507210619 15 78 0.0 0.0 0.03 0.51 0.48 81 1011.1
20260507210542 15 78 0.0 4.8 0.03 0.51 0.48 81 1011.1
20260507210520 15 78 0.0 4.8 0.03 0.51 0.48 81 1011.1
20260507210136 15 78 0.0 4.8 0.03 0.51 0.48 81 1011.1
20260507210129 15 78 0.0 4.8 0.03 0.51 0.48 81 1011.0
20260507205734 15 78 1.6 6.4 0.03 0.51 0.48 80 1011.0
20260507205657 15 70 1.6 6.4 0.00 0.51 0.48 80 1011.0
20260507205551 15 66 3.2 6.4 0.00 0.51 0.46 80 1011.1
20260507205422 15 62 3.2 6.4 0.00 0.51 0.46 80 1011.0
20260507205225 15 73 3.2 6.4 0.00 0.51 0.46 80 1011.0
20260507204700 16 79 0.0 4.8 0.00 0.51 0.46 80 1010.9
20260507204330 16 79 0.0 4.8 0.00 0.51 0.46 80 1010.9
20260507204244 16 79 0.0 4.8 0.00 0.51 0.46 79 1010.9
20260507204155 16 79 0.0 4.8 0.00 0.51 0.46 79 1010.9
20260507204122 16 79 0.0 4.8 0.00 0.51 0.46 79 1010.9
20260507204029 16 79 1.6 4.8 0.00 0.51 0.46 79 1010.9
20260507203907 16 71 1.6 4.8 0.00 0.51 0.46 79 1010.9
20260507203816 16 69 3.2 4.8 0.00 0.51 0.46 79 1010.9
20260507203705 16 80 3.2 4.8 0.00 0.51 0.46 79 1010.9
20260507203526 16 67 1.6 4.8 0.00 0.51 0.46 78 1010.8
20260507203411 16 76 1.6 4.8 0.00 0.51 0.46 78 1010.9
20260507203335 16 62 1.6 4.8 0.00 0.51 0.46 78 1010.8
20260507203212 16 64 0.0 4.8 0.00 0.53 0.46 78 1010.9
20260507203049 16 57 1.6 4.8 0.00 0.53 0.46 78 1011.0
20260507203006 16 57 1.6 4.8 0.00 0.53 0.46 78 1010.9
20260507202859 16 54 0.0 3.2 0.00 0.53 0.46 78 1010.9
20260507202741 16 44 0.0 0.0 0.00 0.53 0.46 77 1011.0
20260507202638 16 44 0.0 0.0 0.00 0.53 0.46 77 1010.9
20260507202330 16 44 0.0 0.0 0.00 0.53 0.46 77 1010.9
20260507202242 16 44 0.0 0.0 0.00 0.53 0.46 77 1011.0
20260507202226 16 44 0.0 0.0 0.00 0.53 0.46 77 1010.9
20260507202146 16 44 0.0 0.0 0.00 0.53 0.46 77 1010.9
20260507201806 16 44 0.0 0.0 0.00 0.53 0.46 77 1010.9
20260507201729 16 44 0.0 0.0 0.00 0.53 0.46 76 1010.9
20260507201636 16 44 0.0 0.0 0.00 0.53 0.46 76 1010.9
20260507201552 16 44 0.0 0.0 0.00 0.53 0.46 76 1010.9
20260507201242 16 44 0.0 0.0 0.00 0.53 0.46 76 1010.9
20260507201204 16 44 0.0 0.0 0.00 0.53 0.46 76 1010.9
20260507200844 17 44 0.0 0.0 0.00 0.56 0.46 76 1010.8
20260507200744 17 44 0.0 0.0 0.00 0.56 0.46 75 1010.8
20260507200642 17 44 0.0 0.0 0.00 0.56 0.46 75 1010.7
20260507200539 17 44 0.0 0.0 0.00 0.56 0.46 75 1010.8
20260507200456 17 44 0.0 0.0 0.03 0.56 0.46 75 1010.8
20260507200130 17 44 0.0 0.0 0.03 0.56 0.46 75 1010.7
20260507200055 17 44 0.0 0.0 0.03 0.56 0.46 75 1010.7
20260507195921 17 44 0.0 0.0 0.03 0.56 0.46 75 1010.8
20260507195824 17 44 0.0 0.0 0.03 0.56 0.46 74 1010.8
20260507195723 17 44 0.0 0.0 0.03 0.56 0.46 75 1010.7
20260507195701 17 44 0.0 0.0 0.03 0.56 0.46 75 1010.7
20260507195326 17 44 0.0 0.0 0.03 0.56 0.46 74 1010.7
20260507195014 17 44 0.0 0.0 0.03 0.58 0.46 74 1010.7
20260507194926 17 44 0.0 0.0 0.03 0.58 0.46 74 1010.7
20260507194824 17 44 0.0 0.0 0.03 0.58 0.46 74 1010.7
20260507194758 17 44 0.0 0.0 0.03 0.58 0.46 74 1010.6
20260507194724 17 44 0.0 0.0 0.03 0.58 0.46 74 1010.5
20260507194638 17 44 0.0 0.0 0.03 0.58 0.46 73 1010.5
20260507194536 17 44 0.0 3.2 0.03 0.58 0.46 73 1010.6
20260507194427 17 44 0.0 3.2 0.03 0.58 0.46 73 1010.6
20260507194326 17 44 0.0 3.2 0.03 0.58 0.46 73 1010.5
20260507194258 17 44 0.0 3.2 0.03 0.58 0.46 73 1010.5
20260507194225 18 44 0.0 3.2 0.03 0.58 0.46 73 1010.5
20260507194113 18 44 1.6 3.2 0.03 0.58 0.46 72 1010.7
20260507193954 18 44 0.0 4.8 0.03 0.58 0.46 72 1010.6
20260507193830 18 58 1.6 4.8 0.03 0.58 0.46 71 1010.7
20260507193707 18 55 0.0 4.8 0.03 0.61 0.46 70 1010.6
20260507193614 18 68 0.0 4.8 0.03 0.61 0.46 70 1010.6
20260507193230 18 68 3.2 4.8 0.03 0.61 0.46 70 1010.6
20260507193040 18 65 3.2 6.4 0.03 0.61 0.46 70 1010.5
20260507192648 18 67 0.0 6.4 0.03 0.61 0.46 70 1010.5
20260507192513 18 108 0.0 6.4 0.03 0.61 0.46 69 1010.5
20260507192437 18 108 1.6 6.4 0.03 0.61 0.46 69 1010.6
20260507192354 18 108 1.6 6.4 0.03 0.61 0.46 69 1010.6
20260507192220 18 90 3.2 6.4 0.03 0.61 0.46 69 1010.5
20260507192035 18 67 3.2 6.4 0.03 0.61 0.46 69 1010.4
20260507191851 18 90 1.6 6.4 0.03 0.61 0.46 69 1010.5
20260507191727 18 96 3.2 8.0 0.00 0.58 0.46 69 1010.5
20260507191632 18 91 1.6 8.0 0.00 0.58 0.43 69 1010.5
20260507191522 18 80 1.6 9.7 0.00 0.58 0.43 69 1010.5
20260507191343 18 67 1.6 9.7 0.00 0.61 0.43 69 1010.4
20260507191214 18 87 3.2 9.7 0.00 0.61 0.43 69 1010.4
20260507190827 18 69 4.8 9.7 0.00 0.61 0.43 68 1010.4
20260507190653 18 71 4.8 9.7 0.00 0.61 0.43 68 1010.4
20260507190554 18 77 4.8 9.7 0.00 0.61 0.43 68 1010.4
20260507190111 18 68 3.2 8.0 0.00 0.61 0.43 68 1010.4
20260507185928 19 63 4.8 8.0 0.00 0.61 0.43 68 1010.4
20260507185751 19 63 3.2 8.0 0.00 0.61 0.43 68 1010.3
20260507185620 19 76 3.2 8.0 0.00 0.61 0.43 68 1010.4
20260507185154 19 55 4.8 6.4 0.00 0.61 0.43 68 1010.3
20260507184821 19 57 3.2 8.0 0.00 0.61 0.43 67 1010.2
20260507184641 19 66 3.2 11.3 0.00 0.61 0.43 68 1010.3
20260507184502 19 90 4.8 11.3 0.00 0.61 0.43 67 1010.2
20260507184406 19 69 4.8 11.3 0.00 0.61 0.43 67 1010.3
20260507183924 19 64 6.4 11.3 0.00 0.61 0.43 67 1010.3
20260507183733 19 63 6.4 11.3 0.00 0.61 0.43 67 1010.2
20260507183540 19 63 8.0 11.3 0.00 0.61 0.43 66 1010.3
20260507183359 19 61 8.0 11.3 0.00 0.61 0.43 66 1010.2
20260507183303 19 73 8.0 14.5 0.00 0.61 0.43 65 1010.2
20260507183214 19 67 8.0 14.5 0.00 0.61 0.43 66 1010.3
20260507183034 19 65 6.4 14.5 0.00 0.61 0.43 66 1010.3
20260507182848 19 59 6.4 14.5 0.00 0.61 0.43 65 1010.3
20260507182214 20 65 6.4 12.9 0.00 0.64 0.43 65 1010.4
20260507182120 20 65 6.4 11.3 0.00 0.64 0.43 66 1010.4
20260507181948 20 71 6.4 11.3 0.00 0.64 0.43 65 1010.5
20260507181755 20 40 6.4 11.3 0.00 0.64 0.43 66 1010.6
20260507181613 20 64 6.4 11.3 0.00 0.64 0.43 66 1010.6
20260507181207 20 52 6.4 12.9 0.00 0.64 0.43 65 1010.6
20260507181027 20 59 4.8 14.5 0.00 0.64 0.43 65 1010.6
20260507180542 20 113 6.4 14.5 0.00 0.64 0.43 64 1010.5
20260507180405 20 92 6.4 14.5 0.00 0.64 0.43 64 1010.6
20260507180310 20 105 8.0 14.5 0.00 0.66 0.43 64 1010.6
20260507180208 20 74 8.0 14.5 0.00 0.66 0.43 64 1010.6
20260507180033 20 144 4.8 12.9 0.00 0.66 0.43 64 1010.6
20260507175734 20 58 4.8 12.9 0.00 0.66 0.43 64 1010.6
20260507175601 20 105 4.8 12.9 0.03 0.66 0.43 64 1010.6
20260507175426 20 109 6.4 12.9 0.03 0.66 0.43 64 1010.6
20260507175330 20 117 8.0 17.7 0.03 0.66 0.43 63 1010.7
20260507175236 20 132 9.7 17.7 0.03 0.66 0.43 63 1010.5
20260507174757 20 81 6.4 17.7 0.03 0.66 0.43 63 1010.6
20260507174745 20 135 6.4 17.7 0.03 0.66 0.43 63 1010.6
20260507174606 20 123 11.3 17.7 0.03 0.66 0.43 63 1010.5
20260507174431 20 105 6.4 17.7 0.03 0.66 0.43 62 1010.6
20260507174035 20 110 8.0 12.9 0.03 0.69 0.43 64 1010.6
20260507173851 20 127 6.4 12.9 0.03 0.69 0.43 63 1010.5
20260507173717 20 140 4.8 12.9 0.03 0.69 0.43 63 1010.5
20260507173701 20 103 4.8 12.9 0.03 0.69 0.43 63 1010.5
20260507173521 20 101 6.4 12.9 0.03 0.69 0.43 63 1010.6
20260507173341 20 132 6.4 12.9 0.03 0.69 0.43 62 1010.6
20260507173301 20 109 6.4 12.9 0.03 0.69 0.43 63 1010.6
20260507173154 20 69 4.8 12.9 0.03 0.69 0.43 63 1010.6
20260507173021 20 101 9.7 12.9 0.03 0.69 0.43 62 1010.5
20260507172851 20 106 9.7 16.1 0.03 0.69 0.43 62 1010.5
20260507172836 20 124 9.7 16.1 0.03 0.69 0.43 62 1010.4
20260507172320 20 115 6.4 19.3 0.03 0.69 0.43 62 1010.5
20260507172214 20 107 9.7 19.3 0.03 0.69 0.43 62 1010.5
20260507171810 20 115 8.0 19.3 0.03 0.71 0.43 62 1010.5
20260507171746 20 108 8.0 17.7 0.03 0.71 0.43 62 1010.6
20260507171606 20 111 11.3 14.5 0.03 0.71 0.43 62 1010.6
20260507171153 20 117 9.7 14.5 0.03 0.71 0.43 62 1010.5
20260507171013 20 98 4.8 14.5 0.03 0.71 0.43 62 1010.5
20260507170331 20 102 9.7 16.1 0.03 0.71 0.43 61 1010.5
20260507170257 20 90 9.7 16.1 0.03 0.71 0.43 61 1010.5
20260507170137 20 107 9.7 16.1 0.03 0.71 0.43 61 1010.5
20260507165956 20 124 9.7 16.1 0.03 0.71 0.43 61 1010.5
20260507165849 20 116 6.4 19.3 0.03 0.71 0.43 62 1010.4
20260507165806 20 113 6.4 19.3 0.03 0.71 0.43 62 1010.6
20260507165114 20 105 9.7 19.3 0.00 0.71 0.43 61 1010.6
20260507164934 20 150 12.9 19.3 0.00 0.71 0.43 61 1010.5
20260507164815 20 138 9.7 16.1 0.00 0.71 0.43 61 1010.5
20260507164725 20 126 9.7 16.1 0.00 0.71 0.43 61 1010.5
20260507164542 20 94 6.4 16.1 0.00 0.71 0.43 60 1010.4
20260507164042 20 87 6.4 16.1 0.00 0.71 0.43 61 1010.5
20260507163859 21 116 6.4 16.1 0.00 0.71 0.43 62 1010.4
20260507163742 20 122 8.0 16.1 0.00 0.71 0.43 60 1010.4
20260507163656 21 154 8.0 16.1 0.00 0.71 0.43 62 1010.4
20260507163520 20 109 9.7 16.1 0.00 0.71 0.43 61 1010.3
20260507163339 20 119 6.4 16.1 0.00 0.71 0.43 61 1010.4
20260507163322 20 88 8.0 17.7 0.00 0.71 0.43 61 1010.4
20260507162930 20 60 9.7 17.7 0.00 0.71 0.43 60 1010.3
20260507162832 20 76 9.7 20.9 0.00 0.71 0.43 62 1010.4
20260507161913 20 111 11.3 22.5 0.00 0.74 0.43 61 1010.3
20260507161809 20 112 9.7 22.5 0.00 0.74 0.43 61 1010.4
20260507161715 20 96 12.9 22.5 0.00 0.74 0.43 61 1010.4
20260507161231 20 173 9.7 22.5 0.00 0.74 0.43 61 1010.3
20260507161042 20 99 12.9 20.9 0.00 0.74 0.43 60 1010.2
20260507160902 20 117 12.9 20.9 0.00 0.74 0.43 61 1010.3
20260507160806 20 82 11.3 20.9 0.00 0.74 0.43 62 1010.3
20260507160712 20 115 12.9 20.9 0.00 0.74 0.43 61 1010.3
20260507155152 20 127 11.3 19.3 0.03 0.76 0.43 63 1010.3
20260507155011 20 132 14.5 24.1 0.03 0.76 0.43 63 1010.2
20260507154830 20 67 11.3 24.1 0.03 0.76 0.43 62 1010.3
20260507154738 20 135 12.9 24.1 0.03 0.76 0.43 62 1010.2
20260507154635 20 97 14.5 24.1 0.03 0.76 0.43 61 1010.3
20260507154458 20 123 14.5 24.1 0.03 0.76 0.43 61 1010.1
20260507154309 20 95 9.7 24.1 0.03 0.76 0.43 62 1010.3
20260507154127 20 94 8.0 20.9 0.03 0.76 0.43 61 1010.3
20260507153738 20 91 9.7 20.9 0.03 0.79 0.43 61 1010.3
20260507153329 20 58 8.0 22.5 0.03 0.79 0.43 62 1010.4
20260507152857 20 101 14.5 22.5 0.03 0.79 0.43 61 1010.3
20260507152801 20 67 16.1 22.5 0.03 0.79 0.43 61 1010.3
20260507152707 20 111 11.3 22.5 0.03 0.79 0.43 61 1010.3
20260507152526 20 93 9.7 22.5 0.03 0.79 0.43 63 1010.4
20260507152335 20 105 14.5 22.5 0.03 0.79 0.43 61 1010.4
20260507151900 20 114 9.7 17.7 0.03 0.79 0.43 62 1010.5
20260507151809 20 80 11.3 17.7 0.03 0.79 0.43 61 1010.6
20260507151711 20 109 11.3 20.9 0.03 0.79 0.43 62 1010.6
20260507151531 20 101 9.7 20.9 0.03 0.79 0.43 62 1010.7
20260507151222 20 88 12.9 20.9 0.03 0.79 0.43 62 1010.6
20260507151038 20 132 12.9 20.9 0.03 0.79 0.43 62 1010.7
20260507150901 20 128 14.5 22.5 0.03 0.79 0.43 62 1010.8
20260507150753 20 87 12.9 22.5 0.03 0.79 0.43 61 1010.7
20260507150659 20 87 11.3 22.5 0.03 0.79 0.43 61 1010.8
20260507150518 20 84 12.9 22.5 0.03 0.81 0.43 62 1010.8
20260507150332 20 61 11.3 22.5 0.03 0.81 0.43 62 1010.8
20260507145930 20 74 12.9 19.3 0.03 0.81 0.43 63 1010.9
20260507145822 20 75 9.7 19.3 0.03 0.81 0.43 62 1010.8
20260507145351 20 105 12.9 19.3 0.00 0.79 0.41 62 1010.9
20260507145145 20 100 9.7 22.5 0.00 0.79 0.41 62 1011.0
20260507145011 20 111 14.5 22.5 0.00 0.79 0.41 62 1010.9
20260507144830 20 98 12.9 22.5 0.00 0.79 0.41 63 1011.1
20260507144735 20 78 14.5 25.7 0.00 0.81 0.41 63 1010.9
20260507144640 20 100 16.1 25.7 0.00 0.81 0.41 63 1011.0
20260507144225 20 92 11.3 25.7 0.00 0.81 0.41 64 1010.9
20260507144044 20 86 14.5 25.7 0.00 0.81 0.41 62 1011.0
20260507143902 20 51 14.5 25.7 0.00 0.81 0.41 62 1011.0
20260507143457 20 45 8.0 17.7 0.00 0.81 0.41 63 1011.1
20260507143142 20 114 11.3 24.1 0.00 0.81 0.41 65 1011.1
20260507143001 20 69 12.9 24.1 0.00 0.81 0.41 65 1011.2
20260507142820 20 134 9.7 24.1 0.00 0.84 0.41 64 1011.2
20260507142727 20 61 11.3 24.1 0.00 0.84 0.41 63 1011.1
20260507142632 20 103 14.5 24.1 0.00 0.84 0.41 63 1011.2
20260507142236 20 124 8.0 24.1 0.03 0.84 0.41 67 1011.4
20260507142058 20 94 11.3 24.1 0.03 0.84 0.41 66 1011.4
20260507141931 20 107 14.5 24.1 0.03 0.84 0.41 66 1011.4
20260507141512 20 105 11.3 22.5 0.03 0.84 0.41 64 1011.5
20260507141207 20 112 12.9 22.5 0.03 0.86 0.41 65 1011.4
20260507141031 19 90 6.4 22.5 0.03 0.86 0.41 65 1011.5
20260507140854 19 107 14.5 22.5 0.03 0.86 0.41 63 1011.5
20260507140752 19 89 14.5 22.5 0.03 0.86 0.41 63 1011.5
20260507140706 19 120 14.5 22.5 0.03 0.86 0.41 63 1011.6
20260507140527 19 90 8.0 19.3 0.03 0.86 0.41 65 1011.6
20260507140256 19 74 12.9 20.9 0.03 0.86 0.41 64 1011.6
20260507135636 19 109 11.3 20.9 0.03 0.86 0.41 63 1011.8
20260507135455 19 55 14.5 20.9 0.03 0.89 0.41 64 1011.8
20260507135313 19 116 11.3 19.3 0.03 0.89 0.41 63 1011.8
20260507135248 19 130 11.3 19.3 0.03 0.89 0.41 63 1011.8
20260507135127 19 77 12.9 22.5 0.03 0.89 0.41 64 1011.8
20260507134626 19 80 12.9 22.5 0.03 0.89 0.41 64 1011.8
20260507134447 19 113 12.9 22.5 0.03 0.89 0.41 64 1011.8
20260507134305 19 78 12.9 22.5 0.03 0.89 0.41 64 1011.8
20260507133852 19 50 9.7 22.5 0.03 0.89 0.41 64 1011.9
20260507133430 19 80 14.5 22.5 0.03 0.89 0.41 63 1012.0
20260507133053 19 115 11.3 20.9 0.03 0.89 0.41 64 1012.1
20260507132925 19 128 9.7 20.9 0.03 0.89 0.41 65 1012.1
20260507132746 19 90 11.3 20.9 0.03 0.89 0.41 66 1012.1
20260507132637 19 125 6.4 17.7 0.03 0.89 0.41 65 1012.1
20260507132556 19 97 6.4 17.7 0.03 0.89 0.41 65 1012.1
20260507132419 19 40 11.3 19.3 0.00 0.89 0.38 65 1012.1
20260507132239 19 74 6.4 19.3 0.00 0.89 0.38 65 1012.1
20260507132214 19 84 6.4 22.5 0.00 0.89 0.38 64 1012.0
20260507132047 18 86 6.4 25.7 0.00 0.89 0.38 64 1012.0
20260507131733 18 121 12.9 25.7 0.00 0.89 0.38 64 1012.3
20260507131327 18 95 12.9 25.7 0.03 0.89 0.38 66 1012.2
20260507131145 18 149 17.7 25.7 0.03 0.89 0.38 65 1012.2
20260507131125 18 149 11.3 25.7 0.03 0.89 0.38 65 1012.2
20260507130951 18 86 6.4 20.9 0.03 0.89 0.38 64 1012.3
20260507130805 18 135 9.7 20.9 0.03 0.89 0.38 62 1012.2
20260507130654 18 103 11.3 20.9 0.03 0.89 0.38 63 1012.3
20260507130605 18 92 11.3 20.9 0.03 0.89 0.38 64 1012.3
20260507130420 18 157 14.5 20.9 0.03 0.89 0.38 64 1012.4
20260507130149 18 100 11.3 22.5 0.03 0.89 0.38 63 1012.4
20260507130008 18 113 9.7 22.5 0.03 0.89 0.38 66 1012.4
20260507125558 18 96 14.5 22.5 0.03 0.89 0.38 64 1012.4
20260507125417 18 98 9.7 22.5 0.03 0.91 0.38 65 1012.4
20260507124921 18 103 11.3 19.3 0.03 0.91 0.38 66 1012.4
20260507124741 18 106 6.4 19.3 0.03 0.91 0.38 66 1012.5
20260507124645 18 49 6.4 19.3 0.03 0.91 0.38 66 1012.5
20260507124551 18 119 8.0 20.9 0.03 0.91 0.38 68 1012.5
20260507124415 18 116 11.3 20.9 0.03 0.91 0.38 64 1012.6
20260507124222 18 74 12.9 20.9 0.03 0.91 0.38 65 1012.6
20260507123552 18 78 12.9 20.9 0.03 0.91 0.38 64 1012.7
20260507123458 18 55 9.7 20.9 0.03 0.91 0.38 68 1012.6
20260507123317 18 107 9.7 20.9 0.03 0.91 0.38 69 1012.5
20260507123130 18 48 9.7 20.9 0.03 0.91 0.38 67 1012.6
20260507122945 18 35 14.5 20.9 0.03 0.94 0.38 65 1012.5
20260507122805 18 40 12.9 19.3 0.03 0.94 0.38 65 1012.6
20260507122709 18 51 14.5 19.3 0.03 0.94 0.38 67 1012.6
20260507122615 18 78 11.3 20.9 0.03 0.94 0.38 66 1012.6
20260507121623 18 139 12.9 22.5 0.03 0.94 0.38 64 1012.7
20260507121422 18 119 12.9 24.1 0.03 0.94 0.38 65 1012.8
20260507121334 18 86 12.9 24.1 0.05 0.94 0.38 64 1012.8
20260507121229 18 65 8.0 24.1 0.03 0.91 0.38 66 1012.7
20260507121033 17 135 11.3 24.1 0.03 0.91 0.36 65 1012.7
20260507120858 17 49 17.7 24.1 0.03 0.91 0.36 65 1012.9
20260507120843 17 92 17.7 24.1 0.03 0.91 0.36 65 1012.9
20260507120700 17 44 9.7 24.1 0.03 0.91 0.36 65 1012.9
20260507120519 17 42 9.7 19.3 0.03 0.91 0.36 66 1012.8
20260507120438 17 75 9.7 19.3 0.03 0.91 0.36 66 1012.8
20260507120330 17 78 12.9 19.3 0.03 0.91 0.36 66 1012.8
20260507120153 17 80 11.3 19.3 0.03 0.91 0.36 65 1012.9
20260507120024 17 67 11.3 17.7 0.03 0.94 0.36 67 1012.9
20260507120006 17 37 11.3 17.7 0.03 0.94 0.36 66 1012.9
20260507115824 17 82 9.7 19.3 0.03 0.94 0.36 68 1013.0
20260507115648 17 114 6.4 19.3 0.03 0.94 0.36 69 1012.9
20260507115258 17 53 6.4 19.3 0.03 0.94 0.36 67 1012.9
20260507115119 17 9 12.9 19.3 0.03 0.94 0.36 68 1013.0
20260507114957 17 61 11.3 19.3 0.03 0.94 0.36 68 1013.1
20260507114930 17 63 11.3 19.3 0.03 0.94 0.36 68 1013.0
20260507114751 17 128 11.3 16.1 0.03 0.94 0.36 68 1013.0
20260507114614 17 46 9.7 16.1 0.03 0.94 0.36 69 1013.1
20260507114535 17 105 8.0 16.1 0.03 0.94 0.36 69 1013.2
20260507114424 17 100 8.0 16.1 0.03 0.94 0.36 69 1013.2
20260507114243 17 67 9.7 16.1 0.03 0.94 0.36 70 1013.2
20260507114121 17 80 8.0 16.1 0.03 0.94 0.36 70 1013.1
20260507114055 17 121 8.0 16.1 0.03 0.94 0.36 70 1013.1
20260507113911 17 107 9.7 16.1 0.03 0.94 0.36 68 1013.2
20260507113733 17 99 8.0 16.1 0.03 0.94 0.36 70 1013.2
20260507113704 17 110 8.0 16.1 0.03 0.94 0.36 70 1013.2
20260507113545 17 178 9.7 16.1 0.03 0.97 0.36 70 1013.3
20260507113401 17 121 8.0 19.3 0.03 0.97 0.36 68 1013.3
20260507112731 17 94 11.3 19.3 0.03 0.97 0.36 68 1013.4
20260507112334 17 112 8.0 14.5 0.03 0.97 0.36 67 1013.4
20260507112217 17 98 9.7 14.5 0.03 0.97 0.36 67 1013.4
20260507112144 17 130 9.7 14.5 0.03 0.97 0.36 67 1013.5
20260507111122 17 105 9.7 17.7 0.03 0.94 0.33 66 1013.5
20260507110957 17 84 8.0 17.7 0.03 0.94 0.33 64 1013.6
20260507110919 17 102 8.0 17.7 0.03 0.94 0.33 65 1013.4
20260507110736 17 49 9.7 17.7 0.03 0.94 0.33 65 1013.5
20260507110554 16 103 6.4 17.7 0.03 0.94 0.33 68 1013.6
20260507110529 16 109 6.4 17.7 0.03 0.94 0.33 67 1013.5
20260507110357 16 75 9.7 17.7 0.03 0.94 0.33 66 1013.5
20260507110215 16 55 9.7 17.7 0.03 0.94 0.33 66 1013.6
20260507110110 16 67 9.7 17.7 0.03 0.97 0.33 66 1013.6
20260507110021 16 79 9.7 17.7 0.03 0.97 0.33 66 1013.6
20260507105842 16 76 9.7 17.7 0.03 0.97 0.33 68 1013.7
20260507105709 16 64 8.0 17.7 0.03 0.97 0.33 67 1013.7
20260507105644 16 90 6.4 16.1 0.03 0.97 0.33 67 1013.7
20260507105517 16 74 4.8 16.1 0.03 0.97 0.33 68 1013.7
20260507105339 16 92 9.7 16.1 0.03 0.97 0.33 67 1013.8
20260507104702 16 77 6.4 16.1 0.03 0.97 0.33 67 1013.7
20260507104653 16 90 6.4 16.1 0.03 0.97 0.33 67 1013.7
20260507104511 16 83 9.7 16.1 0.03 0.97 0.33 67 1013.8
20260507104059 16 109 11.3 17.7 0.03 0.97 0.33 69 1013.8
20260507103912 16 59 6.4 17.7 0.03 0.97 0.33 69 1013.8
20260507103651 16 74 11.3 17.7 0.03 0.97 0.33 69 1013.8
20260507103502 16 90 8.0 17.7 0.03 0.97 0.33 68 1013.9
20260507103318 16 77 6.4 14.5 0.03 0.97 0.33 68 1013.9
20260507103005 16 58 9.7 14.5 0.03 0.97 0.33 69 1013.8
20260507102828 16 115 4.8 14.5 0.03 0.99 0.33 69 1013.9
20260507102632 16 84 8.0 14.5 0.03 0.99 0.33 71 1013.9
20260507102451 16 116 9.7 14.5 0.03 0.99 0.33 75 1013.9
20260507102310 16 128 6.4 14.5 0.03 0.99 0.33 75 1013.9
20260507101949 15 78 6.4 14.5 0.03 0.99 0.33 75 1013.9
20260507101816 15 89 9.7 14.5 0.00 0.97 0.33 76 1014.0
20260507101623 15 59 4.8 14.5 0.00 0.97 0.33 76 1014.0
20260507101439 15 117 8.0 16.1 0.03 0.97 0.33 75 1014.0
20260507101255 15 91 8.0 16.1 0.03 0.97 0.33 75 1013.9
20260507100843 15 65 9.7 16.1 0.03 0.97 0.33 74 1013.9
20260507100701 15 93 9.7 16.1 0.03 0.97 0.33 76 1014.0
20260507100512 15 111 9.7 16.1 0.03 0.97 0.33 79 1013.9
20260507100331 15 77 9.7 16.1 0.03 0.97 0.33 78 1013.9
20260507100151 15 78 11.3 16.1 0.03 0.97 0.33 78 1014.0
20260507100059 15 92 8.0 16.1 0.03 0.97 0.33 79 1014.0
20260507100012 15 105 6.4 16.1 0.03 0.97 0.33 81 1014.0
20260507095828 15 113 6.4 14.5 0.03 0.99 0.33 80 1014.0
20260507095624 15 63 8.0 16.1 0.03 0.99 0.33 81 1014.0
20260507095442 15 74 6.4 16.1 0.03 0.99 0.33 82 1014.0
20260507095305 15 101 9.7 16.1 0.03 0.99 0.33 81 1014.0
20260507094823 15 61 9.7 16.1 0.03 0.99 0.33 83 1014.0
20260507094626 15 121 8.0 16.1 0.03 0.99 0.33 84 1014.0
20260507094444 15 124 9.7 16.1 0.03 0.99 0.33 83 1013.9
20260507094039 14 113 9.7 16.1 0.03 0.99 0.33 83 1014.0
20260507093945 14 57 11.3 16.1 0.03 0.99 0.33 83 1013.9
20260507093759 14 80 11.3 17.7 0.03 0.99 0.33 83 1013.9
20260507093610 14 103 6.4 17.7 0.03 0.99 0.33 85 1013.9
20260507093429 14 88 8.0 17.7 0.03 0.99 0.33 85 1014.0
20260507093246 14 68 8.0 17.7 0.03 0.99 0.33 84 1014.0
20260507092505 14 126 8.0 17.7 0.05 0.99 0.33 86 1014.0
20260507092320 14 117 11.3 17.7 0.05 0.99 0.33 86 1014.0
20260507092134 13 93 8.0 17.7 0.05 0.99 0.33 87 1013.9
20260507092035 13 70 9.7 17.7 0.05 0.99 0.33 87 1014.0
20260507091552 13 92 9.7 17.7 0.05 0.99 0.33 89 1014.0
20260507091400 13 61 6.4 14.5 0.03 0.99 0.33 90 1014.0
20260507090806 13 99 4.8 14.5 0.03 0.99 0.30 92 1014.2
20260507090707 13 121 1.6 12.9 0.03 0.99 0.30 93 1014.0
20260507090227 13 96 3.2 11.3 0.03 0.99 0.30 94 1014.1
20260507090021 13 72 1.6 11.3 0.03 0.99 0.30 94 1014.1
20260507085836 13 75 4.8 12.9 0.03 0.99 0.30 94 1014.1
20260507085335 13 77 8.0 12.9 0.03 0.99 0.30 95 1014.1
20260507085241 13 104 8.0 12.9 0.03 0.99 0.30 95 1014.1
20260507085104 13 114 3.2 12.9 0.03 0.99 0.30 95 1014.2
20260507084910 13 48 8.0 12.9 0.03 0.99 0.30 96 1014.1
20260507084727 12 71 4.8 12.9 0.03 0.99 0.30 96 1014.2
20260507084535 12 74 4.8 12.9 0.03 0.99 0.30 96 1014.1
20260507084439 12 57 3.2 12.9 0.05 0.99 0.30 97 1014.3
20260507084005 12 111 4.8 12.9 0.05 0.99 0.30 97 1014.2
20260507083551 12 113 6.4 12.9 0.05 0.99 0.30 97 1014.1
20260507083410 12 76 8.0 12.9 0.05 0.99 0.30 98 1014.2
20260507082914 12 67 3.2 11.3 0.05 0.99 0.30 98 1014.2
20260507082812 12 98 3.2 11.3 0.05 0.99 0.30 99 1014.1
20260507082624 12 125 4.8 11.3 0.05 0.99 0.30 98 1014.2
20260507082424 12 109 3.2 11.3 0.05 0.99 0.30 99 1014.1
20260507082245 12 98 6.4 11.3 0.05 0.99 0.30 98 1014.2
20260507082052 12 117 6.4 11.3 0.05 0.99 0.30 99 1014.2
20260507081956 12 111 6.4 11.3 0.05 0.99 0.30 99 1014.1
20260507081515 12 138 3.2 8.0 0.05 0.99 0.30 99 1014.2
20260507080712 12 79 3.2 6.4 0.03 0.99 0.28 99 1014.1
20260507080528 12 93 3.2 6.4 0.03 0.99 0.28 99 1014.1
20260507080428 12 117 3.2 4.8 0.03 0.99 0.28 99 1014.1
20260507080339 12 70 3.2 4.8 0.03 0.99 0.28 99 1014.1
20260507080200 12 77 1.6 4.8 0.03 0.99 0.28 100 1014.1
20260507080014 11 92 1.6 4.8 0.03 0.99 0.28 99 1014.1
20260507075859 11 98 3.2 6.4 0.03 0.99 0.28 99 1014.0
20260507075712 11 60 3.2 6.4 0.03 0.99 0.28 100 1014.1
20260507075340 11 46 1.6 6.4 0.05 0.99 0.28 99 1014.0
20260507075211 11 53 3.2 6.4 0.05 0.99 0.28 99 1014.0
20260507074757 11 55 3.2 6.4 0.05 0.99 0.28 99 1014.1
20260507074621 11 47 1.6 6.4 0.05 0.99 0.28 99 1014.0
20260507074144 11 146 0.0 6.4 0.05 0.99 0.28 99 1014.0
20260507074105 11 74 1.6 6.4 0.05 0.99 0.28 99 1014.0
20260507073555 11 114 3.2 6.4 0.05 0.99 0.28 99 1014.1
20260507073421 11 48 1.6 6.4 0.05 0.99 0.28 100 1014.1
20260507073250 11 84 3.2 6.4 0.05 0.99 0.28 99 1014.1
20260507073151 11 67 1.6 6.4 0.03 0.97 0.25 100 1014.1
20260507073057 10 72 1.6 4.8 0.03 0.97 0.25 100 1014.0
20260507072932 10 67 1.6 4.8 0.03 0.99 0.25 100 1014.0
20260507072746 10 98 0.0 4.8 0.03 0.99 0.25 99 1014.0
20260507072036 10 80 3.2 4.8 0.03 0.99 0.25 100 1014.1
20260507071951 10 81 3.2 4.8 0.03 0.99 0.25 100 1014.1
20260507071847 10 89 1.6 4.8 0.03 0.99 0.25 100 1014.1
20260507071311 10 82 0.0 4.8 0.03 0.99 0.25 99 1014.1
20260507071159 10 80 3.2 4.8 0.03 0.99 0.25 99 1014.1
20260507070956 10 77 3.2 4.8 0.03 0.99 0.25 99 1014.1
20260507070919 10 71 3.2 4.8 0.03 0.99 0.25 99 1014.1
20260507070813 10 71 1.6 4.8 0.03 0.99 0.25 99 1014.1
20260507070627 9 56 3.2 4.8 0.03 0.99 0.25 99 1014.1
20260507070508 9 71 3.2 4.8 0.03 0.99 0.25 100 1014.1
20260507070056 9 106 1.6 4.8 0.05 0.99 0.25 99 1014.1
20260507065647 9 52 3.2 4.8 0.05 0.99 0.25 99 1014.2
20260507065536 9 62 3.2 4.8 0.05 0.99 0.25 99 1014.1
20260507065020 8 83 3.2 4.8 0.05 0.99 0.25 99 1014.2
20260507064610 8 78 3.2 4.8 0.05 0.99 0.25 99 1014.2
20260507064413 8 16 3.2 4.8 0.03 0.97 0.23 99 1014.1
20260507064319 8 11 3.2 4.8 0.03 0.97 0.23 99 1014.1
20260507064205 8 11 3.2 4.8 0.03 0.97 0.23 99 1014.1
20260507064027 8 313 1.6 3.2 0.03 0.97 0.23 99 1014.1
20260507063647 8 313 0.0 3.2 0.03 0.97 0.23 99 1014.1
20260507063519 8 313 0.0 3.2 0.03 0.97 0.23 99 1014.1
20260507063359 8 313 1.6 3.2 0.03 0.97 0.23 99 1014.1
20260507063245 8 313 1.6 3.2 0.03 0.97 0.23 99 1014.1
20260507063129 8 313 0.0 4.8 0.03 0.97 0.23 99 1014.1
20260507063006 8 313 1.6 4.8 0.03 0.97 0.23 99 1014.1
20260507062919 8 313 1.6 4.8 0.03 0.97 0.23 99 1014.1
20260507062828 8 313 1.6 4.8 0.03 0.97 0.23 99 1014.1
20260507062259 7 313 1.6 4.8 0.03 0.97 0.23 99 1014.2
20260507061804 7 313 0.0 1.6 0.03 0.99 0.23 99 1014.0
20260507061631 7 313 0.0 1.6 0.03 0.99 0.23 99 1014.0
20260507061554 7 313 0.0 0.0 0.03 0.99 0.23 98 1014.1
20260507061455 7 313 0.0 0.0 0.03 0.99 0.23 98 1014.1
20260507061356 7 313 0.0 0.0 0.03 0.99 0.23 99 1014.1
20260507061242 7 313 0.0 0.0 0.03 0.99 0.23 98 1014.1
20260507061138 7 313 0.0 0.0 0.03 0.99 0.23 99 1014.1
20260507061109 7 313 0.0 0.0 0.03 0.99 0.23 99 1014.0
20260507061031 7 313 0.0 0.0 0.03 0.99 0.23 99 1014.1
20260507060351 7 313 0.0 0.0 0.05 0.99 0.23 98 1014.2
20260507060233 7 313 0.0 0.0 0.05 0.99 0.23 98 1014.1
20260507055532 7 313 0.0 0.0 0.05 0.99 0.23 98 1014.2
20260507055434 7 313 0.0 0.0 0.03 0.97 0.23 98 1014.1
20260507055332 7 313 0.0 0.0 0.03 0.97 0.23 99 1014.0
20260507054932 7 313 0.0 0.0 0.03 0.97 0.23 99 1014.0
20260507054833 7 313 0.0 0.0 0.03 0.97 0.23 99 1013.9
20260507054108 7 313 0.0 0.0 0.03 0.97 0.23 99 1013.9
20260507053935 7 313 0.0 0.0 0.03 0.97 0.23 99 1013.9
20260507053718 11 265 0.0 0.0 0.05 1.02 0.97 92 1015.0
20260507053646 7 313 0.0 0.0 0.03 0.97 0.23 98 1013.8
20260507053545 7 313 0.0 0.0 0.03 0.97 0.23 98 1013.8
20260507053517 7 313 0.0 0.0 0.03 0.97 0.23 98 1013.9
20260507053345 7 313 0.0 0.0 0.03 0.97 0.23 98 1013.9
20260507052932 6 313 0.0 0.0 0.03 0.97 0.23 98 1013.8
20260507052812 6 313 0.0 0.0 0.03 0.97 0.23 98 1013.8
20260507052807 11 265 0.0 0.0 0.05 0.99 0.94 92 1015.0
20260507052615 6 313 0.0 0.0 0.03 0.97 0.23 98 1013.8
20260507052458 7 313 0.0 0.0 0.03 0.97 0.23 98 1013.9
20260507052433 6 313 0.0 0.0 0.03 0.97 0.23 98 1014.0
20260507052211 6 313 0.0 0.0 0.03 0.97 0.23 98 1013.9
20260507052017 6 313 0.0 0.0 0.03 0.97 0.23 98 1013.8
20260507051927 6 313 0.0 0.0 0.03 0.97 0.23 98 1013.8
20260507051809 6 313 0.0 0.0 0.03 0.97 0.23 98 1013.9
20260507051616 6 313 0.0 0.0 0.03 0.99 0.23 98 1013.8
20260507051459 6 313 0.0 0.0 0.03 0.99 0.23 98 1013.8
20260507051440 6 313 0.0 0.0 0.03 0.99 0.23 98 1013.7
20260507051316 6 313 0.0 0.0 0.03 0.99 0.23 98 1013.8
20260507051201 6 313 0.0 0.0 0.05 0.99 0.23 98 1013.8
20260507051114 6 313 0.0 0.0 0.05 0.99 0.23 98 1013.8
20260507051009 6 313 0.0 0.0 0.05 0.99 0.23 98 1013.7
20260507050919 6 313 0.0 0.0 0.05 0.99 0.23 98 1013.7
20260507050817 6 313 0.0 0.0 0.05 0.99 0.23 98 1013.8
20260507050802 6 313 0.0 0.0 0.05 0.99 0.23 98 1013.7
20260507050621 6 313 0.0 0.0 0.05 0.99 0.23 98 1013.7
20260507050233 6 313 0.0 0.0 0.03 0.97 0.20 98 1013.6
20260507050127 6 313 0.0 0.0 0.03 0.97 0.20 98 1013.6
20260507045457 6 313 0.0 0.0 0.03 0.97 0.20 98 1013.6
20260507045331 6 313 0.0 0.0 0.03 0.97 0.20 98 1013.7
20260507045241 6 313 0.0 0.0 0.03 0.97 0.20 98 1013.7
20260507044930 6 313 0.0 0.0 0.03 0.97 0.20 98 1013.6
20260507044725 6 313 0.0 0.0 0.03 0.97 0.20 97 1013.6
20260507044359 6 313 0.0 0.0 0.03 0.97 0.20 97 1013.6
20260507044214 6 313 0.0 0.0 0.03 0.97 0.20 97 1013.6
20260507044100 6 313 0.0 0.0 0.03 0.97 0.20 97 1013.6
20260507044008 6 313 0.0 0.0 0.03 0.97 0.20 97 1013.7
20260507043443 7 313 0.0 0.0 0.03 0.97 0.20 98 1013.6
20260507043413 7 313 0.0 0.0 0.03 0.97 0.20 98 1013.6
20260507043252 11 265 0.0 0.0 0.05 0.99 0.94 92 1015.0
20260507043210 7 313 0.0 0.0 0.03 0.97 0.20 98 1013.7
20260507043037 7 313 0.0 0.0 0.03 0.97 0.20 98 1013.7
20260507042929 7 313 0.0 0.0 0.03 0.97 0.20 98 1013.6
20260507042806 7 313 0.0 0.0 0.03 0.97 0.20 98 1013.7
20260507042640 7 313 0.0 0.0 0.03 0.99 0.20 98 1013.7
20260507042522 7 313 0.0 0.0 0.03 0.99 0.20 98 1013.7
20260507042338 7 313 0.0 0.0 0.05 0.99 0.20 98 1013.8
20260507041939 7 313 0.0 0.0 0.05 0.99 0.20 98 1013.8
20260507041834 7 313 0.0 0.0 0.05 0.99 0.20 98 1013.7
20260507041726 7 313 0.0 0.0 0.05 0.99 0.20 98 1013.8
20260507041624 7 313 0.0 0.0 0.05 0.99 0.20 98 1013.7
20260507041607 7 313 0.0 0.0 0.05 0.99 0.20 98 1013.8
20260507041144 7 313 0.0 0.0 0.05 0.99 0.20 98 1013.8
20260507040950 7 313 0.0 0.0 0.03 0.97 0.18 98 1013.8
20260507040904 7 313 0.0 0.0 0.03 0.97 0.18 98 1013.8
20260507040741 7 313 0.0 0.0 0.03 0.97 0.18 98 1013.8
20260507040712 11 265 0.0 0.0 0.05 0.99 0.94 91 1014.8
20260507040547 7 313 0.0 0.0 0.03 0.97 0.18 98 1013.7
20260507040407 7 313 0.0 0.0 0.03 0.97 0.18 98 1013.8
20260507040359 7 313 0.0 0.0 0.03 0.97 0.18 98 1013.7
20260507040149 7 313 0.0 0.0 0.03 0.97 0.18 98 1013.8
20260507040025 7 313 0.0 0.0 0.03 0.97 0.18 98 1013.6
20260507035952 7 313 0.0 0.0 0.03 0.97 0.18 98 1013.7
20260507035826 7 313 0.0 0.0 0.03 0.97 0.18 98 1013.7
20260507035728 7 313 0.0 0.0 0.03 0.97 0.18 98 1013.7
20260507035412 7 313 0.0 0.0 0.03 0.97 0.18 98 1013.6
20260507035233 7 313 0.0 0.0 0.03 0.97 0.18 98 1013.7
20260507035123 7 313 0.0 0.0 0.03 0.97 0.18 98 1013.8
20260507034737 7 313 0.0 0.0 0.03 0.97 0.18 98 1013.7
20260507034721 12 265 0.0 0.0 0.05 1.02 0.94 90 1014.8
20260507034657 12 265 0.0 0.0 0.05 1.02 0.94 90 1014.7
20260507034607 12 265 0.0 0.0 0.05 0.99 0.91 90 1014.8
20260507034537 7 313 0.0 0.0 0.03 0.97 0.18 98 1013.7
20260507034458 12 265 0.0 0.0 0.05 0.99 0.91 90 1014.6
20260507034406 7 313 0.0 0.0 0.03 0.97 0.18 98 1013.8
20260507034351 7 313 0.0 0.0 0.03 0.97 0.18 98 1013.7
20260507034227 12 265 0.0 1.6 0.05 0.99 0.91 90 1014.6
20260507034137 7 313 0.0 0.0 0.03 0.97 0.18 98 1013.7
20260507033939 7 313 0.0 0.0 0.03 0.97 0.18 98 1013.7
20260507033913 12 255 0.0 4.8 0.05 0.99 0.89 88 1014.3
20260507033839 7 313 0.0 0.0 0.03 0.97 0.18 98 1013.7
20260507033725 7 313 0.0 0.0 0.03 0.99 0.18 98 1013.7
20260507033531 7 313 0.0 0.0 0.05 0.99 0.18 98 1013.7
20260507033354 7 313 0.0 0.0 0.05 0.99 0.18 98 1013.7
20260507033128 7 313 0.0 0.0 0.05 0.99 0.18 98 1013.8
20260507033024 7 313 0.0 0.0 0.05 0.99 0.18 98 1013.7
20260507032957 7 313 0.0 0.0 0.05 0.99 0.18 98 1013.7
20260507032847 7 313 0.0 0.0 0.05 0.99 0.18 98 1013.7
20260507032753 7 313 0.0 0.0 0.05 0.99 0.18 97 1013.8
20260507032433 7 313 0.0 0.0 0.03 0.97 0.18 97 1013.8
20260507032235 7 313 0.0 0.0 0.03 0.97 0.15 97 1013.8
20260507031935 13 261 3.2 6.4 0.05 0.99 0.89 87 1014.2
20260507031904 7 313 0.0 0.0 0.03 0.97 0.15 97 1013.8
20260507031826 7 313 0.0 0.0 0.03 0.97 0.15 97 1013.8
20260507031707 7 313 0.0 0.0 0.03 0.97 0.15 97 1013.8
20260507031509 7 313 0.0 0.0 0.03 0.97 0.15 97 1013.8
20260507031359 7 313 0.0 0.0 0.03 0.97 0.15 97 1013.8
20260507031112 7 313 0.0 0.0 0.03 0.97 0.15 98 1013.9
20260507030934 7 313 0.0 0.0 0.03 0.97 0.15 98 1013.9
20260507030804 7 313 0.0 0.0 0.03 0.97 0.15 98 1013.9
20260507030653 7 313 0.0 0.0 0.03 0.97 0.15 98 1013.9
20260507030618 7 313 0.0 0.0 0.03 0.97 0.15 98 1013.9
20260507030604 7 313 0.0 0.0 0.03 0.97 0.15 98 1014.0
20260507025836 7 313 0.0 0.0 0.03 0.99 0.15 97 1013.9
20260507025712 13 264 3.2 6.4 0.05 1.02 0.89 86 1014.1
20260507025642 7 313 0.0 0.0 0.03 0.99 0.15 97 1014.0
20260507025506 13 270 0.0 6.4 0.05 1.02 0.89 86 1014.2
20260507025438 7 313 0.0 0.0 0.03 0.99 0.15 97 1013.9
20260507025334 7 313 0.0 0.0 0.05 0.99 0.15 97 1014.0
20260507025316 7 313 0.0 0.0 0.05 0.99 0.15 97 1014.0
20260507025057 7 313 0.0 0.0 0.05 0.99 0.15 97 1014.0
20260507024926 7 313 0.0 0.0 0.05 0.99 0.15 97 1014.0
20260507024756 7 313 0.0 0.0 0.05 0.99 0.15 97 1013.9
20260507024341 7 313 0.0 0.0 0.05 0.99 0.15 97 1013.9
20260507024328 7 313 0.0 0.0 0.05 0.99 0.15 97 1013.9
20260507024154 13 263 3.2 9.7 0.05 0.99 0.89 85 1014.1
20260507024057 7 313 0.0 0.0 0.05 0.99 0.15 97 1013.9
20260507023934 7 313 0.0 0.0 0.05 0.99 0.15 97 1013.9
20260507023821 7 313 0.0 0.0 0.03 0.97 0.15 97 1013.8
20260507023402 8 313 0.0 0.0 0.03 0.97 0.15 97 1013.9
20260507023344 7 313 0.0 0.0 0.03 0.97 0.15 97 1013.8
20260507023140 8 313 0.0 0.0 0.03 0.97 0.15 97 1013.9
20260507023032 8 313 0.0 0.0 0.03 0.97 0.15 97 1013.9
20260507023014 8 313 0.0 0.0 0.03 0.97 0.15 97 1013.8
20260507022511 8 313 0.0 0.0 0.03 0.97 0.15 97 1013.9
20260507022416 8 313 0.0 0.0 0.03 0.97 0.15 98 1013.8
20260507022343 8 313 0.0 0.0 0.03 0.97 0.15 98 1013.8
20260507022158 8 313 0.0 0.0 0.03 0.97 0.15 98 1013.8
20260507021834 8 313 0.0 0.0 0.03 0.99 0.15 98 1013.8
20260507021624 8 313 0.0 0.0 0.03 0.99 0.15 98 1013.9
20260507021420 8 313 0.0 0.0 0.05 0.99 0.15 98 1013.9
20260507021334 8 313 0.0 0.0 0.05 0.99 0.15 98 1013.8
20260507021300 8 313 0.0 0.0 0.05 0.99 0.15 98 1013.9
20260507021145 13 276 3.2 9.7 0.05 0.99 0.89 85 1014.1
20260507021023 8 313 0.0 0.0 0.05 0.99 0.15 98 1014.0
20260507020936 13 259 3.2 9.7 0.05 0.99 0.89 84 1014.0
20260507020839 8 313 0.0 0.0 0.05 0.99 0.15 98 1013.9
20260507020659 8 313 0.0 0.0 0.05 0.99 0.15 97 1013.9
20260507020612 8 313 0.0 0.0 0.05 0.99 0.15 97 1013.9
20260507020543 8 313 0.0 0.0 0.05 0.99 0.15 98 1013.9
20260507020522 8 313 0.0 0.0 0.05 0.99 0.15 97 1013.9
20260507020339 7 313 0.0 0.0 0.05 0.99 0.15 97 1013.8
20260507020243 8 313 0.0 0.0 0.05 0.99 0.15 97 1013.9
20260507020107 7 313 0.0 0.0 0.05 0.99 0.15 97 1013.8
20260507015452 8 313 0.0 0.0 0.03 0.97 0.13 97 1013.8
20260507015319 8 313 0.0 0.0 0.03 0.97 0.13 97 1013.8
20260507015232 8 313 0.0 0.0 0.03 0.97 0.13 97 1013.8
20260507014843 8 313 0.0 0.0 0.03 0.97 0.13 97 1013.9
20260507014748 8 313 0.0 0.0 0.03 0.97 0.13 97 1013.8
20260507014437 8 313 0.0 0.0 0.03 0.99 0.13 97 1014.0
20260507014305 7 313 0.0 0.0 0.03 0.99 0.13 97 1013.9
20260507014211 8 313 0.0 0.0 0.03 0.99 0.13 97 1013.9
20260507014123 8 313 0.0 0.0 0.03 0.99 0.13 97 1013.9
20260507013747 8 313 0.0 0.0 0.05 0.99 0.13 97 1013.9
20260507013721 8 313 0.0 0.0 0.05 0.99 0.13 97 1014.0
20260507013319 8 313 0.0 0.0 0.05 0.99 0.13 97 1014.0
20260507012612 8 313 0.0 0.0 0.05 0.99 0.13 97 1014.0
20260507012314 8 313 0.0 0.0 0.05 0.99 0.13 97 1014.0
20260507012142 8 313 0.0 0.0 0.05 0.99 0.13 97 1014.1
20260507012038 8 313 0.0 0.0 0.05 0.99 0.13 97 1014.0
20260507011600 8 313 0.0 0.0 0.05 0.99 0.13 97 1014.1
20260507011400 7 313 0.0 0.0 0.03 0.97 0.13 97 1014.0
20260507011317 8 313 0.0 0.0 0.03 0.97 0.10 97 1014.0
20260507011235 8 313 0.0 0.0 0.03 0.99 0.10 97 1014.1
20260507011049 8 313 0.0 0.0 0.03 0.99 0.10 96 1014.1
20260507010952 8 313 0.0 0.0 0.03 0.99 0.10 96 1014.0
20260507010937 8 313 0.0 0.0 0.03 0.99 0.10 96 1014.0
20260507010405 8 313 0.0 0.0 0.03 0.99 0.10 97 1014.1
20260507010340 8 313 0.0 0.0 0.03 0.99 0.10 97 1014.2
20260507010230 8 313 0.0 0.0 0.03 0.99 0.10 97 1014.1
20260507010122 8 313 0.0 0.0 0.03 0.99 0.10 97 1014.1
20260507010050 8 313 0.0 0.0 0.03 0.99 0.10 97 1014.1
20260507010029 8 313 0.0 0.0 0.03 0.99 0.10 97 1014.2
20260507005836 8 313 0.0 0.0 0.03 0.99 0.10 97 1014.3
20260507005515 8 313 0.0 0.0 0.05 0.99 0.10 97 1014.3
20260507005319 8 313 0.0 0.0 0.05 0.99 0.10 97 1014.2
20260507005157 8 313 0.0 0.0 0.05 0.99 0.10 96 1014.2
20260507004841 8 313 0.0 0.0 0.05 0.99 0.10 96 1014.3
20260507004638 8 313 0.0 0.0 0.05 0.99 0.10 96 1014.4
20260507004540 8 313 0.0 0.0 0.05 0.99 0.10 97 1014.4
20260507004141 8 313 0.0 0.0 0.05 0.99 0.10 97 1014.3
20260507004054 8 313 0.0 0.0 0.05 0.99 0.10 97 1014.4
20260507004031 8 313 0.0 0.0 0.05 0.99 0.10 97 1014.4
20260507003549 8 313 0.0 0.0 0.05 0.99 0.10 97 1014.5
20260507003450 8 313 0.0 0.0 0.03 0.99 0.08 97 1014.5
20260507003438 8 313 0.0 0.0 0.03 0.99 0.08 97 1014.5
20260507003227 8 313 0.0 0.0 0.03 0.99 0.08 97 1014.5
20260507003115 8 313 0.0 0.0 0.03 0.99 0.08 97 1014.6
20260507003100 8 313 0.0 0.0 0.03 0.99 0.08 97 1014.5
20260507002607 8 313 0.0 0.0 0.03 0.99 0.08 97 1014.6
20260507002531 8 313 0.0 0.0 0.03 0.99 0.08 97 1014.5
20260507002516 8 313 0.0 0.0 0.03 0.99 0.08 97 1014.6
20260507002333 8 313 0.0 0.0 0.05 0.99 0.08 97 1014.5
20260507002229 8 313 0.0 0.0 0.05 0.99 0.08 96 1014.5
20260507002213 8 313 0.0 0.0 0.05 0.99 0.08 96 1014.6
20260507002145 8 313 0.0 0.0 0.05 0.99 0.08 96 1014.5
20260507001654 8 313 0.0 0.0 0.05 0.99 0.08 96 1014.5
20260507001553 8 313 0.0 0.0 0.05 0.99 0.08 96 1014.6
20260507001213 8 313 0.0 0.0 0.05 0.99 0.08 96 1014.5
20260507001133 8 313 0.0 0.0 0.05 0.99 0.08 96 1014.5
20260507000931 8 313 0.0 0.0 0.05 0.99 0.08 96 1014.5
20260507000626 8 313 0.0 0.0 0.05 0.99 0.08 96 1014.5
20260507000421 8 313 0.0 0.0 0.05 0.99 0.08 96 1014.6
20260507000328 8 313 0.0 0.0 0.05 0.99 0.08 96 1014.6
20260506235925 8 313 0.0 0.0 0.05 0.99 0.08 96 1014.7
20260506235812 8 313 0.0 0.0 0.03 0.99 0.05 97 1014.6
20260506235707 8 313 0.0 0.0 0.03 0.99 0.05 97 1014.7
20260506235620 8 313 0.0 0.0 0.03 0.99 0.05 97 1014.7
20260506235254 8 313 0.0 0.0 0.05 0.99 0.05 96 1014.7
20260506235220 8 313 0.0 0.0 0.05 0.99 0.05 96 1014.7
20260506235119 8 313 0.0 0.0 0.05 0.99 0.05 96 1014.7
20260506235042 8 313 0.0 0.0 0.05 0.99 0.05 96 1014.6
20260506234403 9 313 0.0 0.0 0.05 0.99 0.05 96 1014.6
20260506234312 9 313 0.0 0.0 0.05 0.99 0.05 96 1014.6
20260506234212 9 313 0.0 1.6 0.05 0.99 0.05 96 1014.6
20260506234132 9 313 0.0 1.6 0.05 0.99 0.05 96 1014.6
20260506234112 9 313 0.0 1.6 0.05 0.99 0.05 96 1014.6
20260506234014 9 313 0.0 1.6 0.05 0.99 0.05 96 1014.5
20260506233711 9 313 0.0 1.6 0.05 0.99 0.05 96 1014.6
20260506233248 8 313 0.0 1.6 0.05 0.99 0.05 95 1014.6
20260506233207 8 290 0.0 0.0 0.05 1.02 0.05 96 1014.5
20260506233134 8 290 0.0 0.0 0.05 1.02 0.05 96 1014.6
20260506233019 9 290 0.0 0.0 0.03 0.99 0.05 96 1014.7
20260506232926 9 290 0.0 0.0 0.03 0.99 0.05 96 1014.7
20260506232846 9 290 0.0 0.0 0.05 0.99 0.05 96 1014.7
20260506232751 9 290 0.0 0.0 0.05 0.99 0.05 96 1014.8
20260506232722 9 290 0.0 0.0 0.05 0.99 0.05 95 1014.8
20260506232655 9 290 0.0 0.0 0.05 0.99 0.05 95 1014.8
20260506232306 9 290 0.0 0.0 0.05 0.99 0.05 95 1014.8
20260506231058 9 290 0.0 0.0 0.05 0.99 0.05 95 1014.8
20260506230953 9 290 0.0 0.0 0.05 0.99 0.05 95 1014.8
20260506230647 9 290 0.0 0.0 0.05 0.99 0.05 95 1014.7
20260506230255 10 290 0.0 0.0 0.05 0.99 0.05 96 1014.7
20260506230236 10 290 0.0 0.0 0.05 1.02 0.05 96 1014.7
20260506225840 10 290 0.0 0.0 0.03 0.99 0.05 96 1014.7
20260506225729 10 290 0.0 0.0 0.03 0.99 0.03 95 1014.8
20260506225349 10 290 0.0 0.0 0.05 0.99 0.03 95 1014.7
20260506225330 10 290 0.0 0.0 0.05 0.99 0.03 95 1014.7
20260506225254 10 290 0.0 0.0 0.05 0.99 0.03 95 1014.8
20260506224657 10 290 0.0 0.0 0.05 0.99 0.03 95 1014.8
20260506224552 10 290 0.0 0.0 0.05 0.99 0.03 95 1014.7
20260506224229 10 290 0.0 0.0 0.05 0.99 0.03 95 1014.8